Time,TemperatureF,DewpointF,PressureIn,WindDirection,WindDirectionDegrees,WindSpeedMPH,WindSpeedGustMPH,Humidity,HourlyPrecipIn,Conditions,Clouds,dailyrainin,SolarRadiationWatts/m^2,SoftwareType,DateUTC
2013-11-23 00:01:00,21.2,11.0,30.58,NW,320,1.0,-999.0,66,-99.99,,,0.00,0,weatherlink.com 1.10,2013-11-23 08:01:00,
2013-11-23 00:16:00,21.4,11.0,30.58,NW,320,2.0,-999.0,65,-99.99,,,0.00,0,weatherlink.com 1.10,2013-11-23 08:16:00,
2013-11-23 00:31:00,21.2,12.0,30.57,NW,320,0.0,-999.0,67,-99.99,,,0.00,0,weatherlink.com 1.10,2013-11-23 08:31:00,
2013-11-23 00:46:00,21.2,12.0,30.57,NW,320,0.0,-999.0,67,-99.99,,,0.00,0,weatherlink.com 1.10,2013-11-23 08:46:00,
2013-11-23 01:01:00,21.0,12.0,30.57,NW,320,0.0,-999.0,67,-99.99,,,0.00,0,weatherlink.com 1.10,2013-11-23 09:01:00,
2013-11-23 01:16:00,21.0,12.0,30.56,NW,320,2.0,-999.0,67,-99.99,,,0.00,0,weatherlink.com 1.10,2013-11-23 09:16:00,
2013-11-23 01:31:00,20.7,12.0,30.56,NW,320,2.0,-999.0,68,-99.99,,,0.00,0,weatherlink.com 1.10,2013-11-23 09:31:00,
2013-11-23 01:46:00,20.3,11.0,30.56,NW,320,3.0,-999.0,68,-99.99,,,0.00,0,weatherlink.com 1.10,2013-11-23 09:46:00,
2013-11-23 02:01:00,20.8,12.0,30.56,NW,320,0.0,-999.0,68,-99.99,,,0.00,0,weatherlink.com 1.10,2013-11-23 10:01:00,
2013-11-23 02:16:00,20.9,12.0,30.56,NW,320,0.0,-999.0,68,-99.99,,,0.00,0,weatherlink.com 1.10,2013-11-23 10:16:00,
2013-11-23 02:31:00,20.6,12.0,30.56,NW,320,2.0,-999.0,68,-99.99,,,0.00,0,weatherlink.com 1.10,2013-11-23 10:31:00,
2013-11-23 02:46:00,20.4,11.0,30.56,NW,320,1.0,-999.0,68,-99.99,,,0.00,0,weatherlink.com 1.10,2013-11-23 10:46:00,
2013-11-23 03:01:00,19.7,11.0,30.56,NW,320,2.0,-999.0,69,-99.99,,,0.00,0,weatherlink.com 1.10,2013-11-23 11:01:00,
2013-11-23 03:16:00,19.9,12.0,30.55,NW,320,2.0,-999.0,70,-99.99,,,0.00,0,weatherlink.com 1.10,2013-11-23 11:16:00,
2013-11-23 03:31:00,20.4,12.0,30.55,NW,320,2.0,-999.0,69,-99.99,,,0.00,0,weatherlink.com 1.10,2013-11-23 11:31:00,
2013-11-23 03:46:00,20.5,12.0,30.54,NW,320,0.0,-999.0,69,-99.99,,,0.00,0,weatherlink.com 1.10,2013-11-23 11:46:00,
2013-11-23 04:01:00,20.1,11.0,30.54,NW,319,1.0,-999.0,69,-99.99,,,0.00,0,weatherlink.com 1.10,2013-11-23 12:01:00,
2013-11-23 04:16:00,20.0,12.0,30.54,NW,320,2.0,-999.0,70,-99.99,,,0.00,0,weatherlink.com 1.10,2013-11-23 12:16:00,
2013-11-23 04:31:00,20.5,12.0,30.54,NW,320,0.0,-999.0,69,-99.99,,,0.00,0,weatherlink.com 1.10,2013-11-23 12:31:00,
2013-11-23 04:46:00,20.3,12.0,30.55,NW,320,0.0,-999.0,69,-99.99,,,0.00,0,weatherlink.com 1.10,2013-11-23 12:46:00,
2013-11-23 05:01:00,19.8,12.0,30.54,NW,320,1.0,-999.0,70,-99.99,,,0.00,0,weatherlink.com 1.10,2013-11-23 13:01:00,
2013-11-23 05:16:00,19.9,12.0,30.54,NW,320,0.0,-999.0,71,-99.99,,,0.00,0,weatherlink.com 1.10,2013-11-23 13:16:00,
2013-11-23 05:31:00,20.1,12.0,30.53,NW,320,0.0,-999.0,70,-99.99,,,0.00,0,weatherlink.com 1.10,2013-11-23 13:31:00,
2013-11-23 05:46:00,20.0,12.0,30.53,NW,320,0.0,-999.0,71,-99.99,,,0.00,0,weatherlink.com 1.10,2013-11-23 13:46:00,
2013-11-23 06:01:00,20.1,12.0,30.53,NW,320,0.0,-999.0,70,-99.99,,,0.00,0,weatherlink.com 1.10,2013-11-23 14:01:00,
2013-11-23 06:16:00,20.1,12.0,30.53,NW,320,0.0,-999.0,70,-99.99,,,0.00,0,weatherlink.com 1.10,2013-11-23 14:16:00,
2013-11-23 06:31:00,20.0,12.0,30.53,NW,320,0.0,-999.0,71,-99.99,,,0.00,0,weatherlink.com 1.10,2013-11-23 14:31:00,
2013-11-23 06:46:00,19.8,12.0,30.53,NW,320,0.0,-999.0,71,-99.99,,,0.00,0,weatherlink.com 1.10,2013-11-23 14:46:00,
2013-11-23 07:01:00,19.8,12.0,30.52,NW,320,0.0,-999.0,71,-99.99,,,0.00,0,weatherlink.com 1.10,2013-11-23 15:01:00,
2013-11-23 07:16:00,19.5,12.0,30.53,NW,320,0.0,-999.0,71,-99.99,,,0.00,7,weatherlink.com 1.10,2013-11-23 15:16:00,
2013-11-23 07:31:00,19.4,12.0,30.53,NW,320,1.0,-999.0,72,-99.99,,,0.00,21,weatherlink.com 1.10,2013-11-23 15:31:00,
2013-11-23 07:46:00,19.3,11.0,30.53,NW,319,0.0,-999.0,71,-99.99,,,0.00,53,weatherlink.com 1.10,2013-11-23 15:46:00,
2013-11-23 08:01:00,19.5,12.0,30.53,NW,319,0.0,-999.0,71,-99.99,,,0.00,95,weatherlink.com 1.10,2013-11-23 16:01:00,
2013-11-23 08:16:00,20.4,12.0,30.53,NW,319,0.0,-999.0,70,-99.99,,,0.00,135,weatherlink.com 1.10,2013-11-23 16:16:00,
2013-11-23 08:31:00,21.1,12.0,30.52,NW,319,0.0,-999.0,69,-99.99,,,0.00,179,weatherlink.com 1.10,2013-11-23 16:31:00,
2013-11-23 08:46:00,21.9,13.0,30.52,NW,319,2.0,-999.0,69,-99.99,,,0.00,218,weatherlink.com 1.10,2013-11-23 16:46:00,
2013-11-23 09:01:00,21.8,13.0,30.52,NW,319,0.0,-999.0,68,-99.99,,,0.00,251,weatherlink.com 1.10,2013-11-23 17:01:00,
2013-11-23 09:16:00,23.6,14.0,30.51,NW,319,0.0,-999.0,66,-99.99,,,0.00,246,weatherlink.com 1.10,2013-11-23 17:16:00,
2013-11-23 09:31:00,23.8,14.0,30.51,NW,320,2.0,-999.0,65,-99.99,,,0.00,313,weatherlink.com 1.10,2013-11-23 17:31:00,
2013-11-23 09:46:00,23.9,14.0,30.51,NW,320,3.0,-999.0,65,-99.99,,,0.00,343,weatherlink.com 1.10,2013-11-23 17:46:00,
2013-11-23 10:01:00,24.7,14.0,30.50,NW,322,3.0,-999.0,64,-99.99,,,0.00,366,weatherlink.com 1.10,2013-11-23 18:01:00,
2013-11-23 10:16:00,25.6,14.0,30.50,NW,323,2.0,-999.0,62,-99.99,,,0.00,387,weatherlink.com 1.10,2013-11-23 18:16:00,
2013-11-23 10:31:00,26.0,14.0,30.50,NW,325,1.0,-999.0,61,-99.99,,,0.00,403,weatherlink.com 1.10,2013-11-23 18:31:00,
2013-11-23 10:46:00,26.7,14.0,30.49,North,355,0.0,-999.0,60,-99.99,,,0.00,418,weatherlink.com 1.10,2013-11-23 18:46:00,
2013-11-23 11:01:00,27.6,14.0,30.48,North,10,0.0,-999.0,58,-99.99,,,0.00,431,weatherlink.com 1.10,2013-11-23 19:01:00,
2013-11-23 11:16:00,28.6,15.0,30.47,NNE,14,0.0,-999.0,56,-99.99,,,0.00,438,weatherlink.com 1.10,2013-11-23 19:16:00,
2013-11-23 11:31:00,29.1,15.0,30.46,NNE,15,0.0,-999.0,55,-99.99,,,0.00,443,weatherlink.com 1.10,2013-11-23 19:31:00,
2013-11-23 11:46:00,30.3,15.0,30.46,NE,35,3.0,-999.0,53,-99.99,,,0.00,446,weatherlink.com 1.10,2013-11-23 19:46:00,
2013-11-23 12:01:00,30.4,15.0,30.45,NE,38,0.0,-999.0,52,-99.99,,,0.00,445,weatherlink.com 1.10,2013-11-23 20:01:00,
2013-11-23 12:16:00,31.1,15.0,30.44,NE,40,0.0,-999.0,51,-99.99,,,0.00,439,weatherlink.com 1.10,2013-11-23 20:16:00,
2013-11-23 12:31:00,31.7,15.0,30.43,NE,35,3.0,-999.0,50,-99.99,,,0.00,432,weatherlink.com 1.10,2013-11-23 20:31:00,
2013-11-23 12:46:00,32.9,15.0,30.42,NE,34,0.0,-999.0,49,-99.99,,,0.00,418,weatherlink.com 1.10,2013-11-23 20:46:00,
2013-11-23 13:01:00,33.2,15.0,30.42,NNE,26,3.0,-999.0,48,-99.99,,,0.00,404,weatherlink.com 1.10,2013-11-23 21:01:00,
2013-11-23 13:16:00,33.8,15.0,30.41,NNE,26,2.0,-999.0,47,-99.99,,,0.00,387,weatherlink.com 1.10,2013-11-23 21:16:00,
2013-11-23 13:31:00,34.6,16.0,30.39,NNE,27,0.0,-999.0,46,-99.99,,,0.00,371,weatherlink.com 1.10,2013-11-23 21:31:00,
2013-11-23 13:46:00,35.3,16.0,30.39,NNE,27,0.0,-999.0,45,-99.99,,,0.00,318,weatherlink.com 1.10,2013-11-23 21:46:00,
2013-11-23 14:01:00,35.8,16.0,30.39,NNE,27,0.0,-999.0,44,-99.99,,,0.00,323,weatherlink.com 1.10,2013-11-23 22:01:00,
2013-11-23 14:16:00,36.8,16.0,30.38,NNE,27,3.0,-999.0,43,-99.99,,,0.00,295,weatherlink.com 1.10,2013-11-23 22:16:00,
2013-11-23 14:31:00,36.9,16.0,30.37,NNE,27,0.0,-999.0,43,-99.99,,,0.00,236,weatherlink.com 1.10,2013-11-23 22:31:00,
2013-11-23 14:46:00,36.8,16.0,30.37,NNE,27,2.0,-999.0,43,-99.99,,,0.00,183,weatherlink.com 1.10,2013-11-23 22:46:00,
2013-11-23 15:01:00,36.4,16.0,30.37,NNE,27,0.0,-999.0,43,-99.99,,,0.00,139,weatherlink.com 1.10,2013-11-23 23:01:00,
2013-11-23 15:16:00,35.9,16.0,30.37,NNE,27,1.0,-999.0,44,-99.99,,,0.00,83,weatherlink.com 1.10,2013-11-23 23:16:00,
2013-11-23 15:31:00,35.4,16.0,30.36,NNE,27,0.0,-999.0,45,-99.99,,,0.00,47,weatherlink.com 1.10,2013-11-23 23:31:00,
2013-11-23 15:46:00,34.7,16.0,30.36,NNE,27,0.0,-999.0,46,-99.99,,,0.00,32,weatherlink.com 1.10,2013-11-23 23:46:00,
2013-11-23 16:01:00,34.1,16.0,30.36,NNE,27,0.0,-999.0,47,-99.99,,,0.00,21,weatherlink.com 1.10,2013-11-24 00:01:00,
2013-11-23 16:16:00,33.1,15.0,30.36,NNE,27,0.0,-999.0,48,-99.99,,,0.00,12,weatherlink.com 1.10,2013-11-24 00:16:00,
2013-11-23 16:31:00,32.3,15.0,30.36,NNE,27,0.0,-999.0,49,-99.99,,,0.00,0,weatherlink.com 1.10,2013-11-24 00:31:00,
2013-11-23 16:46:00,31.7,15.0,30.36,NNE,27,0.0,-999.0,50,-99.99,,,0.00,0,weatherlink.com 1.10,2013-11-24 00:46:00,
2013-11-23 17:01:00,31.3,15.0,30.36,NNE,27,0.0,-999.0,51,-99.99,,,0.00,0,weatherlink.com 1.10,2013-11-24 01:01:00,
2013-11-23 17:16:00,30.5,15.0,30.36,NNE,27,1.0,-999.0,52,-99.99,,,0.00,0,weatherlink.com 1.10,2013-11-24 01:16:00,
2013-11-23 17:31:00,29.8,14.0,30.36,NNE,27,0.0,-999.0,53,-99.99,,,0.00,0,weatherlink.com 1.10,2013-11-24 01:31:00,
2013-11-23 17:46:00,28.9,14.0,30.36,NNE,27,4.0,-999.0,54,-99.99,,,0.00,0,weatherlink.com 1.10,2013-11-24 01:46:00,
2013-11-23 18:01:00,28.0,14.0,30.36,NNE,27,0.0,-999.0,57,-99.99,,,0.00,0,weatherlink.com 1.10,2013-11-24 02:01:00,
2013-11-23 18:16:00,27.7,14.0,30.36,NNE,27,0.0,-999.0,57,-99.99,,,0.00,0,weatherlink.com 1.10,2013-11-24 02:16:00,
2013-11-23 18:31:00,27.3,15.0,30.36,NNE,27,0.0,-999.0,59,-99.99,,,0.00,0,weatherlink.com 1.10,2013-11-24 02:31:00,
2013-11-23 18:46:00,27.3,15.0,30.35,NNE,27,0.0,-999.0,59,-99.99,,,0.00,0,weatherlink.com 1.10,2013-11-24 02:46:00,
2013-11-23 19:01:00,27.3,15.0,30.35,NNE,26,0.0,-999.0,59,-99.99,,,0.00,0,weatherlink.com 1.10,2013-11-24 03:01:00,
2013-11-23 19:16:00,27.0,15.0,30.35,NNE,27,1.0,-999.0,60,-99.99,,,0.00,0,weatherlink.com 1.10,2013-11-24 03:16:00,
2013-11-23 19:31:00,26.7,15.0,30.35,NNE,26,0.0,-999.0,61,-99.99,,,0.00,0,weatherlink.com 1.10,2013-11-24 03:31:00,
2013-11-23 19:46:00,27.0,15.0,30.34,NNE,27,0.0,-999.0,60,-99.99,,,0.00,0,weatherlink.com 1.10,2013-11-24 03:46:00,
2013-11-23 20:01:00,26.9,15.0,30.35,NNE,27,0.0,-999.0,60,-99.99,,,0.00,0,weatherlink.com 1.10,2013-11-24 04:01:00,
2013-11-23 20:16:00,26.5,15.0,30.34,NNE,27,0.0,-999.0,61,-99.99,,,0.00,0,weatherlink.com 1.10,2013-11-24 04:16:00,
2013-11-23 20:31:00,26.4,15.0,30.34,NNE,27,0.0,-999.0,63,-99.99,,,0.00,0,weatherlink.com 1.10,2013-11-24 04:31:00,
2013-11-23 20:46:00,26.5,15.0,30.34,NNE,27,0.0,-999.0,62,-99.99,,,0.00,0,weatherlink.com 1.10,2013-11-24 04:46:00,
2013-11-23 21:01:00,25.8,15.0,30.34,NNE,27,0.0,-999.0,64,-99.99,,,0.00,0,weatherlink.com 1.10,2013-11-24 05:01:00,
2013-11-23 21:16:00,25.1,15.0,30.33,NNE,27,0.0,-999.0,66,-99.99,,,0.00,0,weatherlink.com 1.10,2013-11-24 05:16:00,
2013-11-23 21:31:00,25.8,15.0,30.33,NNE,27,1.0,-999.0,64,-99.99,,,0.00,0,weatherlink.com 1.10,2013-11-24 05:31:00,
2013-11-23 21:46:00,25.2,15.0,30.32,NNE,27,0.0,-999.0,64,-99.99,,,0.00,0,weatherlink.com 1.10,2013-11-24 05:46:00,
2013-11-23 22:01:00,25.4,15.0,30.33,NNE,27,0.0,-999.0,64,-99.99,,,0.00,0,weatherlink.com 1.10,2013-11-24 06:01:00,
2013-11-23 22:16:00,25.8,15.0,30.33,NNE,27,0.0,-999.0,64,-99.99,,,0.00,0,weatherlink.com 1.10,2013-11-24 06:16:00,
2013-11-23 22:31:00,25.3,15.0,30.32,NNE,27,0.0,-999.0,64,-99.99,,,0.00,0,weatherlink.com 1.10,2013-11-24 06:31:00,
2013-11-23 22:46:00,26.0,15.0,30.31,NNE,27,2.0,-999.0,64,-99.99,,,0.00,0,weatherlink.com 1.10,2013-11-24 06:46:00,
2013-11-23 23:01:00,25.9,15.0,30.31,NNE,27,1.0,-999.0,64,-99.99,,,0.00,0,weatherlink.com 1.10,2013-11-24 07:01:00,
2013-11-23 23:16:00,25.7,15.0,30.31,NNE,27,0.0,-999.0,64,-99.99,,,0.00,0,weatherlink.com 1.10,2013-11-24 07:16:00,
2013-11-23 23:31:00,25.8,15.0,30.30,NNE,27,0.0,-999.0,64,-99.99,,,0.00,0,weatherlink.com 1.10,2013-11-24 07:31:00,
2013-11-23 23:46:00,26.5,15.0,30.30,NNE,27,0.0,-999.0,63,-99.99,,,0.00,0,weatherlink.com 1.10,2013-11-24 07:46:00,